| time (UTC) | temp C | wind direction | speed KPH | gust KPH | rain 1hr cm | rain 24hr cm | rain mn cm | humidity % | barometer mb |
| 20260507044515 | 16 | 246 | 6.4 | 12.9 | 0.00 | 0.00 | 0.00 | 85 | 1017.2 |
| 20260507043022 | 16 | 258 | 8.0 | 12.9 | 0.00 | 0.00 | 0.00 | 84 | 1017.2 |
| 20260507041513 | 16 | 240 | 6.4 | 17.7 | 0.00 | 0.00 | 0.00 | 85 | 1017.1 |
| 20260507040013 | 16 | 254 | 9.7 | 17.7 | 0.00 | 0.00 | 0.00 | 85 | 1016.9 |
| 20260507034520 | 16 | 261 | 8.0 | 16.1 | 0.00 | 0.00 | 0.00 | 85 | 1016.7 |
| 20260507033015 | 16 | 244 | 6.4 | 14.5 | 0.00 | 0.00 | 0.00 | 83 | 1016.5 |
| 20260507031510 | 16 | 221 | 9.7 | 16.1 | 0.00 | 0.00 | 0.00 | 82 | 1016.3 |
| 20260507030010 | 16 | 254 | 11.3 | 19.3 | 0.00 | 0.00 | 0.00 | 82 | 1016.2 |
| 20260507024514 | 17 | 214 | 8.0 | 16.1 | 0.00 | 0.00 | 0.00 | 77 | 1016.2 |
| 20260507023009 | 17 | 264 | 11.3 | 22.5 | 0.00 | 0.00 | 0.00 | 73 | 1015.9 |
| 20260507021510 | 17 | 242 | 11.3 | 20.9 | 0.00 | 0.00 | 0.00 | 80 | 1015.8 |
| 20260507020009 | 17 | 256 | 16.1 | 25.7 | 0.00 | 0.00 | 0.00 | 78 | 1015.7 |
| 20260507014507 | 17 | 272 | 20.9 | 27.4 | 0.00 | 0.00 | 0.00 | 79 | 1015.6 |
| 20260507013008 | 17 | 258 | 17.7 | 30.6 | 0.00 | 0.00 | 0.00 | 77 | 1015.5 |
| 20260507011511 | 17 | 245 | 14.5 | 25.7 | 0.00 | 0.00 | 0.00 | 78 | 1015.4 |
| 20260507010005 | 17 | 251 | 17.7 | 29.0 | 0.00 | 0.00 | 0.00 | 78 | 1015.3 |
| 20260507004504 | 17 | 247 | 20.9 | 29.0 | 0.00 | 0.00 | 0.00 | 78 | 1015.3 |
| 20260507003004 | 17 | 262 | 19.3 | 32.2 | 0.00 | 0.00 | 0.00 | 80 | 1015.4 |
| 20260507001507 | 17 | 240 | 19.3 | 29.0 | 0.00 | 0.00 | 0.00 | 79 | 1015.3 |
| 20260507000002 | 17 | 263 | 14.5 | 32.2 | 0.00 | 0.00 | 0.00 | 79 | 1015.2 |
| 20260506234603 | 17 | 244 | 20.9 | 30.6 | 0.00 | 0.00 | 0.00 | 79 | 1015.3 |
| 20260506233101 | 17 | 264 | 19.3 | 30.6 | 0.00 | 0.00 | 0.00 | 77 | 1015.3 |
| 20260506231605 | 17 | 246 | 20.9 | 30.6 | 0.00 | 0.00 | 0.00 | 77 | 1015.5 |
| 20260506230104 | 17 | 238 | 17.7 | 29.0 | 0.00 | 0.00 | 0.00 | 77 | 1015.7 |
| 20260506224550 | 17 | 247 | 19.3 | 27.4 | 0.00 | 0.00 | 0.00 | 76 | 1015.9 |
| 20260506223048 | 17 | 225 | 16.1 | 27.4 | 0.00 | 0.00 | 0.00 | 76 | 1016.1 |
| 20260506221603 | 18 | 265 | 11.3 | 20.9 | 0.00 | 0.00 | 0.00 | 75 | 1016.4 |
| 20260506220043 | 18 | 250 | 9.7 | 22.5 | 0.00 | 0.00 | 0.00 | 77 | 1016.6 |
| 20260506214541 | 18 | 243 | 16.1 | 20.9 | 0.00 | 0.00 | 0.00 | 74 | 1016.7 |
| 20260506213038 | 18 | 248 | 14.5 | 20.9 | 0.00 | 0.00 | 0.00 | 74 | 1016.9 |
| 20260506211635 | 18 | 188 | 9.7 | 16.1 | 0.00 | 0.00 | 0.00 | 74 | 1017.1 |
| 20260506210048 | 18 | 223 | 9.7 | 16.1 | 0.00 | 0.00 | 0.00 | 69 | 1017.3 |
| 20260506204533 | 18 | 205 | 6.4 | 11.3 | 0.00 | 0.00 | 0.00 | 63 | 1017.4 |
| 20260506203036 | 18 | 190 | 11.3 | 14.5 | 0.00 | 0.00 | 0.00 | 75 | 1017.5 |
| 20260506201530 | 18 | 144 | 8.0 | 12.9 | 0.00 | 0.00 | 0.00 | 76 | 1017.7 |
| 20260506200032 | 18 | 175 | 9.7 | 12.9 | 0.00 | 0.00 | 0.00 | 75 | 1017.8 |
| 20260506194529 | 18 | 155 | 6.4 | 14.5 | 0.00 | 0.00 | 0.00 | 75 | 1018.0 |
| 20260506193126 | 18 | 150 | 8.0 | 12.9 | 0.00 | 0.00 | 0.00 | 78 | 1018.1 |
| 20260506191527 | 17 | 148 | 9.7 | 14.5 | 0.00 | 0.00 | 0.00 | 80 | 1018.3 |
| 20260506190029 | 17 | 132 | 11.3 | 16.1 | 0.00 | 0.00 | 0.00 | 77 | 1018.3 |
| 20260506184534 | 18 | 121 | 4.8 | 12.9 | 0.00 | 0.00 | 0.00 | 77 | 1018.5 |
| 20260506183023 | 18 | 125 | 6.4 | 14.5 | 0.00 | 0.00 | 0.00 | 76 | 1018.5 |
| 20260506181534 | 17 | 129 | 6.4 | 12.9 | 0.00 | 0.00 | 0.00 | 78 | 1018.6 |
| 20260506180020 | 17 | 101 | 6.4 | 12.9 | 0.00 | 0.00 | 0.00 | 77 | 1018.6 |
| 20260506174519 | 17 | 98 | 4.8 | 11.3 | 0.00 | 0.00 | 0.00 | 76 | 1018.6 |
| 20260506173019 | 17 | 102 | 6.4 | 11.3 | 0.00 | 0.00 | 0.00 | 74 | 1018.5 |
| 20260506171518 | 17 | 63 | 6.4 | 9.7 | 0.00 | 0.00 | 0.00 | 76 | 1018.5 |
| 20260506170025 | 17 | 90 | 6.4 | 8.0 | 0.00 | 0.00 | 0.00 | 74 | 1018.5 |
| 20260506164537 | 17 | 88 | 3.2 | 9.7 | 0.00 | 0.00 | 0.00 | 74 | 1018.5 |
| 20260506163014 | 18 | 126 | 1.6 | 4.8 | 0.00 | 0.00 | 0.00 | 73 | 1018.4 |
| 20260506161511 | 17 | 104 | 1.6 | 9.7 | 0.00 | 0.00 | 0.00 | 74 | 1018.3 |
| 20260506160009 | 17 | 114 | 3.2 | 9.7 | 0.00 | 0.00 | 0.00 | 74 | 1018.4 |
| 20260506154507 | 16 | 71 | 4.8 | 8.0 | 0.00 | 0.00 | 0.00 | 76 | 1018.4 |
| 20260506153005 | 16 | 90 | 4.8 | 8.0 | 0.00 | 0.00 | 0.00 | 77 | 1018.4 |
| 20260506151605 | 16 | 78 | 3.2 | 8.0 | 0.00 | 0.00 | 0.00 | 79 | 1018.4 |
| 20260506150108 | 16 | 58 | 4.8 | 8.0 | 0.00 | 0.00 | 0.00 | 78 | 1018.4 |
| 20260506144556 | 16 | 57 | 3.2 | 8.0 | 0.00 | 0.00 | 0.00 | 79 | 1018.4 |
| 20260506143054 | 16 | 92 | 3.2 | 6.4 | 0.00 | 0.00 | 0.00 | 81 | 1018.3 |
| 20260506141551 | 16 | 63 | 3.2 | 4.8 | 0.00 | 0.00 | 0.00 | 82 | 1018.2 |
| 20260506140049 | 15 | 26 | 0.0 | 4.8 | 0.00 | 0.00 | 0.00 | 84 | 1018.1 |
| 20260506134551 | 14 | 294 | 0.0 | 0.0 | 0.00 | 0.00 | 0.00 | 87 | 1018.0 |
| 20260506133101 | 13 | 286 | 0.0 | 0.0 | 0.00 | 0.00 | 0.00 | 88 | 1017.9 |
| 20260506131545 | 13 | 272 | 0.0 | 0.0 | 0.00 | 0.00 | 0.00 | 89 | 1017.7 |
| 20260506130043 | 13 | 272 | 0.0 | 0.0 | 0.00 | 0.00 | 0.00 | 89 | 1017.5 |
| 20260506124542 | 13 | 272 | 0.0 | 0.0 | 0.00 | 0.00 | 0.00 | 89 | 1017.4 |
| 20260506123041 | 13 | 272 | 0.0 | 0.0 | 0.00 | 0.00 | 0.00 | 89 | 1017.3 |
| 20260506121540 | 13 | 272 | 0.0 | 0.0 | 0.00 | 0.00 | 0.00 | 89 | 1017.3 |
| 20260506120053 | 13 | 272 | 0.0 | 0.0 | 0.00 | 0.00 | 0.00 | 89 | 1017.2 |
| 20260506114537 | 13 | 272 | 0.0 | 0.0 | 0.00 | 0.00 | 0.00 | 89 | 1017.2 |
| 20260506113036 | 13 | 265 | 0.0 | 0.0 | 0.00 | 0.00 | 0.00 | 89 | 1017.1 |
| 20260506111539 | 13 | 214 | 0.0 | 1.6 | 0.00 | 0.00 | 0.00 | 89 | 1017.1 |
| 20260506110033 | 13 | 214 | 0.0 | 1.6 | 0.00 | 0.00 | 0.00 | 89 | 1017.1 |
| 20260506104539 | 13 | 214 | 0.0 | 0.0 | 0.00 | 0.00 | 0.00 | 87 | 1017.1 |
| 20260506103039 | 14 | 214 | 0.0 | 0.0 | 0.00 | 0.00 | 0.00 | 86 | 1017.1 |
| 20260506101528 | 14 | 214 | 0.0 | 1.6 | 0.00 | 0.00 | 0.00 | 86 | 1017.0 |
| 20260506100025 | 15 | 214 | 0.0 | 3.2 | 0.00 | 0.03 | 0.00 | 85 | 1017.1 |
| 20260506094525 | 15 | 223 | 0.0 | 3.2 | 0.00 | 0.03 | 0.00 | 84 | 1017.2 |
| 20260506093023 | 15 | 219 | 0.0 | 3.2 | 0.00 | 0.03 | 0.00 | 84 | 1017.2 |
| 20260506091522 | 15 | 246 | 3.2 | 8.0 | 0.00 | 0.03 | 0.00 | 83 | 1017.2 |
| 20260506090021 | 15 | 263 | 1.6 | 4.8 | 0.00 | 0.08 | 0.00 | 84 | 1017.3 |
| 20260506084545 | 15 | 285 | 0.0 | 3.2 | 0.00 | 0.08 | 0.00 | 84 | 1017.4 |
| 20260506083017 | 15 | 235 | 0.0 | 3.2 | 0.00 | 0.08 | 0.00 | 84 | 1017.4 |
| 20260506081518 | 15 | 289 | 0.0 | 4.8 | 0.00 | 0.08 | 0.00 | 84 | 1017.5 |
| 20260506073013 | 15 | 211 | 4.8 | 11.3 | 0.00 | 0.08 | 0.00 | 85 | 1017.4 |
| 20260506071511 | 15 | 191 | 4.8 | 11.3 | 0.00 | 0.08 | 0.00 | 85 | 1017.3 |
| 20260506061505 | 15 | 207 | 4.8 | 9.7 | 0.00 | 0.08 | 0.08 | 83 | 1017.1 |
| 20260506050103 | 15 | 234 | 1.6 | 6.4 | 0.00 | 0.08 | 0.08 | 83 | 1016.6 |